Regional Weather Roundup
Issued by NWS Glasgow, MT

Home | Current Version | Previous Version | Text Only | Print | Product List | Glossary On
Versions: 1 2 3 4 5 6 7 8 9 10 11 12 13 14 15 16 17 18 19 20 21 22 23 24 25 26 27 28 29 30 31 32 33 34 35 36 37 38 39 40 41 42 43 44 45 46 47 48
000
ASUS45 KGGW 280415
RWRGGW
HOURLY REGIONAL WEATHER ROUNDUP FOR NORTHEAST MONTANA
NATIONAL WEATHER SERVICE GLASGOW MONTANA
1000 PM MDT THU APR 27 2017

NOTE: "FAIR" INDICATES FEW OR NO CLOUDS BELOW 12,000 FEET WITH NO
SIGNIFICANT WEATHER AND/OR OBSTRUCTIONS TO VISISBILITY.

NORTHEAST MONTANA


CITY           SKY/WX    TMP DP  RH WIND       PRES   REMARKS
GLASGOW        CLOUDY    47  17  30 E13       29.78R
PLENTYWOOD       N/A     35  15  44 NE9         N/A
WOLF POINT     PTCLDY    37  18  46 NE6       29.81R
JORDAN           N/A     46  29  51 E7        29.75R
WINNETT          N/A     41  37  86 W5G17       N/A
SIDNEY         CLEAR     38  19  46 N6        29.82R
GLENDIVE       CLEAR     39  24  55 E7        29.79R
MALTA            N/A     43  37  79 N12         N/A

FORT PECK REPORTS


CITY           SKY/WX    TMP DP  RH WIND       PRES   REMARKS
FORT PECK        N/A     46  23  40 E13         N/A
THE PINES        N/A     46  29  51 CALM        N/A

SOUTHEAST MONTANA


CITY           SKY/WX    TMP DP  RH WIND       PRES   REMARKS
BILLINGS       LGT RAIN  40  38  93 N7        29.78R
MILES CITY     PTCLDY    45  25  45 E5        29.74R
BAKER          PTCLDY    36  26  67 E7        29.77R
LIVINGSTON     CLOUDY    37  32  82 NW14      29.81R

CENTRAL MONTANA


CITY           SKY/WX    TMP DP  RH WIND       PRES   REMARKS
HAVRE          PTCLDY    38  35  89 NE6       29.83R
LEWISTOWN      CLOUDY    38  35  89 NW10      29.80R
GREAT FALLS    CLOUDY    39  35  86 CALM      29.85R
CUT BANK       CLOUDY    37  34  89 SW6       29.83R
HELENA         CLOUDY    38  32  79 W3        29.85R
BUTTE          PTCLDY    34  23  64 N10       29.85R
BOZEMAN        CLOUDY    37  34  89 SW7       29.83R

WESTERN MONTANA


CITY           SKY/WX    TMP DP  RH WIND       PRES   REMARKS
MISSOULA       CLOUDY    41  29  62 CALM      29.92R
KALISPELL      NOT AVBL

NORTH DAKOTA


CITY           SKY/WX    TMP DP  RH WIND       PRES   REMARKS
WILLISTON      CLEAR     40  16  37 E8        29.83R
DICKINSON      CLEAR     34  17  50 NE7       29.78R
MINOT          CLEAR     36  26  67 NE7       29.84R
BISMARCK       CLEAR     39  25  57 NE8       29.82R

SOUTHERN SASKATCHEWAN


CITY           SKY/WX    TMP DP  RH WIND       PRES   REMARKS
REGINA         PTCLDY    41  12  30 E12       29.87R
ESTEVAN        PTCLDY    37  25  60 SE8       29.86R
SWIFT CURRENT  CLOUDY    39  36  87 SE6       29.82R




USA.gov is the U.S. government's official web portal to all federal, state and local government web resources and services.